Content
SEND FEEDBACK

Daily
Averages
Monthly
Summary
United States of America

CENTERVILLE, ARKANSAS


Home > North America > United States > Arkansas
Elevation: 370 feet     Latitude: 35 14N     Longitude: 093 10W

WEATHER
 
SELECT A DAY
Number of Records: 165,038;   Date Range: 1/12/99 - 8/30/14
 
SHARE

PRINT THIS DATA

[ ← Previous Day ]
WEATHER ALMANAC - FEBRUARY 5, 2013
[ Next Day → ]
[ °C ]   °F
Weather ElementAverageHighLow
Temperature42.6 °F64 °F (3:53 pm)33.1 °F (4:53 am)
Dewpoint39.6 °F48.9 °F (2:53 pm)32 °F (4:53 am)
Humidity90.5 %100 % (1:51 am)58 % (3:53 pm)
Barometer30.00 in30.05 in (10:53 am)29.94 in (1:51 am)
Wind Speed0.2 mph4.6 mph (3:53 pm)
Weather ElementAverage
Visibility4.3 mi
Wind DirectionN (5.3 °)

Weather ElementTotal
Precipitation---
Heating Degree Days16.5 (Base 65)
Averaged from 36 records on February 5, 2013
WEATHER CONDITIONS BREAKOUT
WIND DIRECTION BREAKOUT
WEATHER BY HOUR - FEBRUARY 5, 2013
[ °C ]   °F
Local TimeTemperatureDewpointHumidityBarometerVisibilityWind DirectionWind SpeedGust SpeedPrecipitationEventsConditions
1:51 AM35.6 °F35.6 °F100 %29.94 in2.0 miCalmOvercast
1:53 AM36.0 °F35.1 °F97 %29.94 in3.0 miCalmOvercast
2:25 AM33.8 °F33.8 °F100 %29.94 in3.0 miCalmPartly Cloudy
2:32 AM35.6 °F33.8 °F93 %29.94 in2.5 miCalmPartly Cloudy
2:44 AM35.6 °F33.8 °F93 %29.94 in3.0 miCalmScattered Clouds
2:53 AM35.1 °F34.0 °F96 %29.94 in4.0 miCalmPartly Cloudy
3:24 AM33.8 °F33.8 °F100 %29.94 in2.5 miCalmMostly Cloudy
3:30 AM35.6 °F33.8 °F93 %29.94 in0.8 miCalmMist
3:53 AM35.1 °F34.0 °F96 %29.94 in0.2 miCalmFogFog
4:53 AM33.1 °F32.0 °F96 %29.94 in0.8 miCalmOvercast
5:53 AM34.0 °F34.0 °F100 %29.96 in0.2 miCalmFogFog
6:53 AM35.1 °F34.0 °F96 %29.98 in0.2 miCalmFogFog
7:53 AM35.1 °F33.1 °F92 %30.01 in0.2 miCalmFogFog
8:53 AM35.1 °F35.1 °F100 %30.03 in0.2 miCalmFogFog
9:53 AM37.9 °F37.9 °F100 %30.04 in0.2 miCalmFogFog
10:53 AM42.1 °F42.1 °F100 %30.05 in1.0 miCalmOvercast
11:06 AM42.8 °F42.8 °F100 %30.05 in2.5 miCalmOvercast
11:14 AM42.8 °F42.8 °F100 %30.05 in4.0 miCalmOvercast
11:46 AM46.4 °F42.8 °F87 %30.04 in10.0 miVariable3.5 mphPartly Cloudy
11:53 AM48.0 °F44.1 °F86 %30.03 in10.0 miCalmPartly Cloudy
12:53 PM54.0 °F46.9 °F77 %30.01 in10.0 miCalmClear
1:53 PM59.0 °F48.0 °F67 %29.98 in10.0 miCalmClear
2:53 PM62.1 °F48.9 °F62 %29.96 in10.0 miCalmClear
3:53 PM64.0 °F48.9 °F58 %29.96 in10.0 miSouth (190°)4.6 mphClear
4:53 PM64.0 °F48.9 °F58 %29.96 in10.0 miCalmClear
5:53 PM53.1 °F48.9 °F86 %29.97 in10.0 miCalmClear
6:53 PM48.9 °F45.0 °F86 %29.99 in10.0 miCalmClear
7:53 PM45.0 °F42.1 °F90 %30.01 in7.0 miCalmClear
8:53 PM45.0 °F43.0 °F93 %30.02 in4.0 miCalmClear
9:53 PM42.1 °F39.9 °F92 %30.04 in4.0 miCalmClear
10:21 PM42.8 °F41.0 °F93 %30.05 in2.5 miCalmClear
10:33 PM42.8 °F41.0 °F93 %30.05 in4.0 miCalmClear
10:53 PM41.0 °F39.0 °F93 %30.05 in3.0 miCalmClear
11:04 PM41.0 °F39.2 °F93 %30.05 in2.5 miCalmClear
11:21 PM39.2 °F39.2 °F100 %30.05 in4.0 miCalmClear
11:53 PM39.9 °F37.9 °F93 %30.05 in3.0 miCalmClear
Hourly data recorded from KRUE, located miles away from Centerville, Arkansas







STORIES FROM OUR PARTNERS